Location: ??
(35.4627°N, 139.3695°E)
Time: 15:14:26
(UTC+00:00)

Meteor 2-17 Rocket - Pass Details

Date: 25 November 2020
Orbit: 936 x 955 km, 82.5° (Epoch: 21 January)

Event Time Altitude Azimuth Distance (km) Brightness Sun altitude
Rises 20:16:56 0° 194° (SSW) 3,580 7.5 -14.5°
Reaches altitude 10° 20:19:26 10° 198° (SSW) 2,638 6.8 -14.0°
Maximum altitude 20:25:24 63° 278° (W) 1,038 4.4 -12.8°
Drops below altitude 10° 20:31:24 10° 360° (N) 2,654 6.6 -11.7°
Sets 20:33:56 0° 4° (N) 3,603 7.3 -11.2°
